N108JA TNCM-TFFR

Flight info

Callsign N108JA
Flight time 0h 36m
Altitude 23000
Route MODOR2 ZPATA A517 BIMBO BIMBO2Z
Aircraft E50P/L-SBDFGRWY/LB2

Departure

Time 2026-04-23 19:04
Airport Princess Juliana International Airport (TNCM)

Arrival

Time 2026-04-23 19:41
Airport Maryse Condé International Airport (TFFR)
Time Latitude Longitude Altitude Speed Heading
2026-04-23 18:39 18.04179 -63.11209 10 ft 0 kts 172°
2026-04-23 19:01 18.04161 -63.11210 24 ft 9 kts 195°
2026-04-23 19:02 18.04136 -63.11267 23 ft 10 kts 258°
2026-04-23 19:02 18.04115 -63.11292 24 ft 0 kts 194°
2026-04-23 19:03 18.04084 -63.11293 22 ft 11 kts 176°
2026-04-23 19:03 18.04037 -63.11269 25 ft 7 kts 78°
2026-04-23 19:03 18.04039 -63.11262 24 ft 6 kts 79°
2026-04-23 19:03 18.04079 -63.10982 23 ft 70 kts 80°
2026-04-23 19:04 18.04175 -63.10293 59 ft 115 kts 81°
2026-04-23 19:04 18.04327 -63.09433 589 ft 119 kts 81°
2026-04-23 19:04 18.04120 -63.08617 1281 ft 121 kts 121°
2026-04-23 19:04 18.03452 -63.08069 2101 ft 127 kts 161°
2026-04-23 19:05 18.02572 -63.08067 2960 ft 129 kts 186°
2026-04-23 19:05 18.01684 -63.08047 3644 ft 126 kts 170°
2026-04-23 19:05 18.00804 -63.08031 4247 ft 128 kts 184°
2026-04-23 19:05 17.99839 -63.08068 4599 ft 152 kts 178°
2026-04-23 19:06 17.98698 -63.08059 4883 ft 180 kts 180°
2026-04-23 19:06 17.97347 -63.08091 5128 ft 207 kts 180°
2026-04-23 19:06 17.95841 -63.08104 5522 ft 220 kts 180°
2026-04-23 19:06 17.94316 -63.08121 6161 ft 219 kts 180°
2026-04-23 19:07 17.92787 -63.08136 6695 ft 221 kts 180°
2026-04-23 19:07 17.91241 -63.08153 7160 ft 223 kts 180°
2026-04-23 19:07 17.89681 -63.08169 7634 ft 225 kts 180°
2026-04-23 19:07 17.88109 -63.08154 8093 ft 227 kts 174°
2026-04-23 19:08 17.86606 -63.07657 8536 ft 229 kts 153°
2026-04-23 19:08 17.85229 -63.06808 8979 ft 231 kts 149°
2026-04-23 19:08 17.83837 -63.05959 9432 ft 232 kts 150°
2026-04-23 19:08 17.82440 -63.05091 9877 ft 234 kts 149°
2026-04-23 19:09 17.81035 -63.04212 10249 ft 236 kts 149°
2026-04-23 19:09 17.79613 -63.03329 10631 ft 239 kts 150°
2026-04-23 19:09 17.78178 -63.02437 11015 ft 241 kts 150°
2026-04-23 19:09 17.76729 -63.01538 11390 ft 243 kts 150°
2026-04-23 19:10 17.75270 -63.00633 11778 ft 244 kts 151°
2026-04-23 19:10 17.73801 -62.99721 12160 ft 246 kts 151°
2026-04-23 19:10 17.72320 -62.98802 12544 ft 248 kts 151°
2026-04-23 19:10 17.70832 -62.97879 12920 ft 250 kts 151°
2026-04-23 19:11 17.69330 -62.96947 13301 ft 251 kts 151°
2026-04-23 19:11 17.67819 -62.96011 13669 ft 254 kts 152°
2026-04-23 19:11 17.66294 -62.95064 14013 ft 255 kts 152°
2026-04-23 19:11 17.64760 -62.94114 14354 ft 257 kts 152°
2026-04-23 19:12 17.63740 -62.93482 14584 ft 258 kts 152°
2026-04-23 19:12 17.61687 -62.92209 15034 ft 260 kts 152°
2026-04-23 19:12 17.60119 -62.91238 15377 ft 262 kts 152°
2026-04-23 19:12 17.58546 -62.90262 15720 ft 263 kts 152°
2026-04-23 19:13 17.56959 -62.89281 16066 ft 265 kts 152°
2026-04-23 19:13 17.55366 -62.88293 16420 ft 267 kts 152°
2026-04-23 19:13 17.53762 -62.87303 16772 ft 269 kts 152°
2026-04-23 19:13 17.52149 -62.86303 17103 ft 271 kts 152°
2026-04-23 19:14 17.50521 -62.85297 17456 ft 272 kts 152°
2026-04-23 19:14 17.48907 -62.84296 17789 ft 274 kts 152°
2026-04-23 19:14 17.47253 -62.83282 18111 ft 275 kts 154°
2026-04-23 19:14 17.45526 -62.82407 18406 ft 276 kts 158°
2026-04-23 19:15 17.43782 -62.81550 18687 ft 278 kts 158°
2026-04-23 19:15 17.42033 -62.80668 18969 ft 280 kts 158°
2026-04-23 19:15 17.40273 -62.79784 19258 ft 281 kts 158°
2026-04-23 19:15 17.38502 -62.78895 19556 ft 283 kts 158°
2026-04-23 19:16 17.36718 -62.78004 19851 ft 285 kts 158°
2026-04-23 19:16 17.34926 -62.77107 20134 ft 286 kts 159°
2026-04-23 19:16 17.33125 -62.76205 20422 ft 288 kts 159°
2026-04-23 19:17 17.29553 -62.74226 21003 ft 297 kts 146°
2026-04-23 19:17 17.28068 -62.72701 21296 ft 302 kts 135°
2026-04-23 19:17 17.26678 -62.71044 21582 ft 304 kts 135°
2026-04-23 19:17 17.25262 -62.69391 21879 ft 306 kts 135°
2026-04-23 19:18 17.23846 -62.67721 22167 ft 308 kts 135°
2026-04-23 19:18 17.22423 -62.66040 22478 ft 309 kts 135°
2026-04-23 19:18 17.20991 -62.64354 22782 ft 311 kts 135°
2026-04-23 19:18 17.19563 -62.62675 22962 ft 317 kts 135°
2026-04-23 19:19 17.16528 -62.59105 22969 ft 338 kts 135°
2026-04-23 19:19 17.14952 -62.57250 22972 ft 344 kts 135°
2026-04-23 19:20 17.11726 -62.53456 22826 ft 357 kts 135°
2026-04-23 19:20 17.10035 -62.51483 22359 ft 371 kts 135°
2026-04-23 19:20 17.08278 -62.49448 21842 ft 383 kts 135°
2026-04-23 19:20 17.06466 -62.47364 21308 ft 391 kts 135°
2026-04-23 19:21 17.04618 -62.45252 20776 ft 397 kts 135°
2026-04-23 19:21 17.00943 -62.41081 19760 ft 382 kts 135°
2026-04-23 19:21 16.99198 -62.39007 19278 ft 378 kts 131°
2026-04-23 19:22 16.97581 -62.36869 18796 ft 372 kts 130°
2026-04-23 19:22 16.95945 -62.34812 18325 ft 366 kts 134°
2026-04-23 19:22 16.92541 -62.30989 17446 ft 350 kts 133°
2026-04-23 19:23 16.90957 -62.29087 17451 ft 344 kts 133°
2026-04-23 19:23 16.89384 -62.27222 17175 ft 348 kts 134°
2026-04-23 19:23 16.87762 -62.25344 16883 ft 349 kts 134°
2026-04-23 19:24 16.84527 -62.21557 16246 ft 350 kts 133°
2026-04-23 19:24 16.82903 -62.19657 15816 ft 351 kts 133°
2026-04-23 19:24 16.79655 -62.15861 14972 ft 348 kts 133°
2026-04-23 19:25 16.76465 -62.12132 14149 ft 341 kts 133°
2026-04-23 19:25 16.73331 -62.08471 13293 ft 335 kts 133°
2026-04-23 19:26 16.70240 -62.04863 12440 ft 335 kts 133°
2026-04-23 19:26 16.68683 -62.03046 12021 ft 334 kts 133°
2026-04-23 19:27 16.65657 -61.99515 11198 ft 320 kts 132°
2026-04-23 19:27 16.60412 -61.95899 9991 ft 292 kts 166°
2026-04-23 19:28 16.56404 -61.95392 9223 ft 287 kts 174°
2026-04-23 19:28 16.52488 -61.94974 8614 ft 279 kts 174°
2026-04-23 19:29 16.50564 -61.94779 8311 ft 279 kts 174°
2026-04-23 19:29 16.46647 -61.94376 7739 ft 286 kts 174°
2026-04-23 19:30 16.42771 -61.93977 7157 ft 259 kts 174°
2026-04-23 19:30 16.41012 -61.93794 6870 ft 255 kts 174°
2026-04-23 19:30 16.37481 -61.93328 6297 ft 247 kts 162°
2026-04-23 19:31 16.35978 -61.92614 5995 ft 231 kts 149°
2026-04-23 19:31 16.34742 -61.91602 5655 ft 224 kts 134°
2026-04-23 19:31 16.33779 -61.90328 5356 ft 226 kts 121°
2026-04-23 19:31 16.33131 -61.88829 5062 ft 229 kts 108°
2026-04-23 19:32 16.32807 -61.87199 4765 ft 231 kts 99°
2026-04-23 19:32 16.32504 -61.85561 4466 ft 230 kts 102°
2026-04-23 19:32 16.32192 -61.83928 4164 ft 229 kts 101°
2026-04-23 19:32 16.31902 -61.82314 3871 ft 226 kts 100°
2026-04-23 19:33 16.31608 -61.80709 3583 ft 225 kts 101°
2026-04-23 19:33 16.31322 -61.79147 3547 ft 213 kts 101°
2026-04-23 19:33 16.30797 -61.76349 3534 ft 174 kts 101°
2026-04-23 19:34 16.30587 -61.75168 3531 ft 163 kts 99°
2026-04-23 19:34 16.30364 -61.73993 3534 ft 168 kts 102°
2026-04-23 19:34 16.29923 -61.71557 3378 ft 169 kts 101°
2026-04-23 19:35 16.29694 -61.70384 3155 ft 162 kts 99°
2026-04-23 19:35 16.29501 -61.69239 2934 ft 157 kts 101°
2026-04-23 19:35 16.29357 -61.68541 2797 ft 141 kts 101°
2026-04-23 19:35 16.29148 -61.67333 2563 ft 117 kts 98°
2026-04-23 19:36 16.28986 -61.66538 2407 ft 107 kts 100°
2026-04-23 19:36 16.28866 -61.65810 2260 ft 100 kts 97°
2026-04-23 19:36 16.28715 -61.65084 2125 ft 107 kts 99°
2026-04-23 19:36 16.28625 -61.64554 2020 ft 113 kts 97°
2026-04-23 19:37 16.28483 -61.63770 1872 ft 113 kts 101°
2026-04-23 19:37 16.28337 -61.62988 1720 ft 105 kts 96°
2026-04-23 19:37 16.28208 -61.62253 1573 ft 101 kts 99°
2026-04-23 19:37 16.28066 -61.61546 1428 ft 99 kts 96°
2026-04-23 19:38 16.27949 -61.60826 1292 ft 102 kts 98°
2026-04-23 19:38 16.27800 -61.60086 1160 ft 106 kts 94°
2026-04-23 19:38 16.27704 -61.59327 1032 ft 108 kts 96°
2026-04-23 19:38 16.27542 -61.58571 875 ft 107 kts 97°
2026-04-23 19:39 16.27399 -61.57818 750 ft 105 kts 98°
2026-04-23 19:39 16.27268 -61.57077 590 ft 103 kts 97°
2026-04-23 19:39 16.27141 -61.56348 439 ft 102 kts 99°
2026-04-23 19:39 16.27000 -61.55644 305 ft 99 kts 100°
2026-04-23 19:40 16.26866 -61.54948 164 ft 95 kts 100°
2026-04-23 19:40 16.26738 -61.54277 27 ft 94 kts 101°
2026-04-23 19:40 16.26624 -61.53673 20 ft 75 kts 101°
2026-04-23 19:40 16.26536 -61.53204 21 ft 53 kts 101°
2026-04-23 19:41 16.26480 -61.52908 21 ft 34 kts 101°
2026-04-23 19:41 16.26439 -61.52690 23 ft 28 kts 102°
2026-04-23 19:41 16.26395 -61.52579 24 ft 11 kts 173°
2026-04-23 19:41 16.26313 -61.52593 25 ft 13 kts 195°
2026-04-23 19:42 16.26244 -61.52627 22 ft 4 kts 268°
2026-04-23 19:42 16.26249 -61.52635 21 ft 0 kts 330°